Mobile, AL

8:15 AM CDT on April 28, 2017 (GMT -0500)
Mobile Regional

Weather History for KMOB - December, 2011

Change the Weather History Date:

Saturday, December 24, 2011

  Actual Average Record
Temperature  
Mean Temperature 55 °F 51 °F  
Max Temperature 63 °F 61 °F 78 °F (1931)
Min Temperature 46 °F 41 °F 9 °F (1989)
Degree Days  
Heating Degree Days 10 14  
Month to date heating degree days 245 301  
Since 1 July heating degree days 535 559  
Cooling Degree Days 0 0  
Month to date cooling degree days 13 8  
Year to date cooling degree days 2857 2511  
Growing Degree Days 4 (Base 50)    
Moisture  
Dew Point 43 °F    
Average Humidity 65    
Maximum Humidity 82    
Minimum Humidity 48    
Precipitation  
Precipitation 0.00 in 0.18 in 1.80 in (1924)
Month to date precipitation 1.20 3.87  
Year to date precipitation 49.74 64.96  
Snow  
Snow 0.00 in 0.00 in 0.00 in (2001)
Month to date snowfall 0.0 0.0  
Since 1 July snowfall 0.0 0.0  
Snow Depth 0.00 in    
Sea Level Pressure  
Sea Level Pressure 30.33 in    
Wind  
Wind Speed 9 mph (NNE)    
Max Wind Speed 16 mph    
Max Gust Speed 21 mph    
Visibility 9 miles    
Events      
T = Trace of Precipitation, MM = Missing Value Source: NWS Daily Summary

Daily Weather History Graph

Daily Weather History Graph

Search for Another Location

Airport or City:

Trip Planner

Search our weather history database for the weather conditions in past years. The results will help you decide how hot, cold, wet, or windy it might be!

Date:

Astronomy

Dec. 24, 2011 Rise Set
Actual Time 6:47 AM CST 4:57 PM CST
Civil Twilight 6:21 AM CST 5:24 PM CST
Nautical Twilight 5:50 AM CST 5:54 PM CST
Astronomical Twilight 5:21 AM CST 6:23 PM CST
Moon 6:35 AM CST (12/24) 5:09 PM CST (12/24)
Length of Visible Light 11h 03m
Length of Day
10h 09m
New Moon, 0% of the Moon is Illuminated
Dec 24
New Moon
Dec 24
New
Jan 1
First Quarter
Jan 9
Full
Jan 16
Last Quarter

Hourly Weather History & Observations

Time (CST) Temp. Windchill Dew Point Humidity Pressure Visibility Wind Dir Wind Speed Gust Speed Precip Events Conditions
12:56 AM 48.0 °F - 42.1 °F 80% 30.30 in 8.0 mi NE 10.4 mph - N/A   Overcast
1:56 AM 46.9 °F - 41.0 °F 80% 30.31 in 7.0 mi NNE 6.9 mph - N/A   Overcast
2:56 AM 46.4 °F 42.4 °F 41.0 °F 81% 30.32 in 7.0 mi North 8.1 mph - N/A   Overcast
3:56 AM 46.4 °F 41.9 °F 41.0 °F 81% 30.32 in 8.0 mi North 9.2 mph - N/A   Overcast
4:56 AM 46.0 °F 41.0 °F 41.0 °F 83% 30.31 in 7.0 mi NNE 10.4 mph - N/A   Overcast
5:56 AM 46.0 °F 40.6 °F 41.0 °F 83% 30.33 in 8.0 mi North 11.5 mph - N/A   Overcast
6:56 AM 46.0 °F 40.6 °F 41.0 °F 83% 30.35 in 8.0 mi NNE 11.5 mph 18.4 mph N/A   Overcast
7:56 AM 46.9 °F - 41.0 °F 80% 30.39 in 7.0 mi NNE 11.5 mph - N/A   Overcast
8:56 AM 48.9 °F - 41.0 °F 74% 30.40 in 8.0 mi North 12.7 mph - N/A   Overcast
9:35 AM 51.8 °F - 42.8 °F 71% 30.40 in 10.0 mi North 9.2 mph - N/A   Mostly Cloudy
9:56 AM 52.0 °F - 41.0 °F 66% 30.40 in 10.0 mi North 12.7 mph - N/A   Scattered Clouds
10:56 AM 55.0 °F - 42.1 °F 62% 30.37 in 10.0 mi North 10.4 mph - N/A   Scattered Clouds
11:56 AM 57.9 °F - 42.1 °F 56% 30.33 in 10.0 mi NE 8.1 mph - N/A   Partly Cloudy
12:56 PM 61.0 °F - 42.1 °F 50% 30.30 in 10.0 mi ENE 9.2 mph - N/A   Partly Cloudy
1:56 PM 62.1 °F - 43.0 °F 50% 30.28 in 10.0 mi NNE 8.1 mph - N/A   Partly Cloudy
2:56 PM 62.1 °F - 44.1 °F 52% 30.27 in 10.0 mi North 8.1 mph - N/A   Scattered Clouds
3:56 PM 60.1 °F - 44.1 °F 55% 30.27 in 10.0 mi NNE 5.8 mph - N/A   Mostly Cloudy
4:56 PM 57.0 °F - 45.0 °F 64% 30.27 in 10.0 mi NNE 6.9 mph - N/A   Mostly Cloudy
5:56 PM 54.0 °F - 45.0 °F 72% 30.30 in 10.0 mi North 3.5 mph - N/A   Partly Cloudy
6:56 PM 54.0 °F - 45.0 °F 72% 30.30 in 10.0 mi NNE 8.1 mph - N/A   Clear
7:56 PM 55.4 °F - 44.6 °F 67% 30.32 in 10.0 mi NNE 6.9 mph - N/A   Partly Cloudy
8:56 PM 55.0 °F - 44.1 °F 67% 30.32 in 10.0 mi NNE 9.2 mph - N/A   Mostly Cloudy
9:56 PM 54.0 °F - 44.1 °F 69% 30.33 in 10.0 mi NNE 8.1 mph - N/A   Partly Cloudy
10:40 PM 53.6 °F - 42.8 °F 67% 30.34 in 8.0 mi North 6.9 mph - N/A   Overcast
10:56 PM 54.0 °F - 43.0 °F 66% 30.34 in 8.0 mi North 8.1 mph - N/A   Overcast
11:37 PM 53.6 °F - 42.8 °F 67% 30.32 in 9.0 mi NNE 8.1 mph - N/A   Overcast
11:56 PM 54.0 °F - 43.0 °F 66% 30.32 in 9.0 mi NNE 9.2 mph - N/A   Overcast